User: anonymous
Location: Unspecified
(0.0000°N, 0.0000°E)
Time: 01:51:07
(UTC+00:00)
Language:

CUTE 1.7 & AOD 2 - Orbit

View from above orbital plane
View from above orbital plane
View from above satellite
View from above satellite

Ground track
Ground track

The orbit data is extracted from the following two-line orbital elements,

1 32785U 08021C   14244.75767638  .00000940  00000-0  11486-3 0   414
2 32785 097.6923 293.5158 0012216 298.3428 129.0360 14.85486132343399
Epoch (UTC): 01 September 2014 18:11:03
Eccentricity: 0.0012216
inclination: 97.6923°
perigee height: 603 km
apogee height: 620 km
right ascension of ascending node: 293.5158°
argument of perigee: 298.3428°
revolutions per day: 14.85486132
mean anomaly at epoch: 129.0360°
orbit number at epoch: 34339

The dashed part of the orbit path shows where the satellite is in the earth's shadow,  

DLR